Time,TemperatureF,DewpointF,PressureIn,WindDirection,WindDirectionDegrees,WindSpeedMPH,WindSpeedGustMPH,Humidity,HourlyPrecipIn,Conditions,Clouds,dailyrainin,SoftwareType,DateUTC
2013-09-17 00:03:00,62.0,61.0,30.21,East,91,2.0,5.0,98,0.00,,,0.03,,2013-09-17 05:03:00,
2013-09-17 00:23:00,62.0,61.0,30.21,SE,129,2.0,4.0,98,0.01,,,0.04,,2013-09-17 05:23:00,
2013-09-17 00:34:00,62.0,61.0,30.21,SE,129,2.0,4.0,98,0.01,,,0.04,,2013-09-17 05:34:00,
2013-09-17 00:52:00,63.0,62.0,30.20,SSE,149,2.0,5.0,98,0.01,,,0.04,,2013-09-17 05:52:00,
2013-09-17 01:12:00,63.0,62.0,30.19,SE,139,0.0,5.0,98,0.01,,,0.04,,2013-09-17 06:12:00,
2013-09-17 01:22:00,63.0,62.0,30.19,SE,139,0.0,5.0,98,0.01,,,0.04,,2013-09-17 06:22:00,
2013-09-17 01:32:00,63.0,62.0,30.19,SE,139,0.0,5.0,98,0.01,,,0.04,,2013-09-17 06:32:00,
2013-09-17 01:52:00,63.0,63.0,30.19,SSE,158,0.0,3.0,99,0.00,,,0.04,,2013-09-17 06:52:00,
2013-09-17 02:23:00,63.0,63.0,30.18,SE,136,0.0,5.0,99,0.00,,,0.04,,2013-09-17 07:23:00,
2013-09-17 02:52:00,63.0,63.0,30.18,South,183,0.0,3.0,99,0.00,,,0.04,,2013-09-17 07:52:00,
2013-09-17 03:02:00,63.0,63.0,30.18,South,183,0.0,3.0,99,0.00,,,0.04,,2013-09-17 08:02:00,
2013-09-17 03:12:00,63.0,63.0,30.18,South,183,0.0,3.0,99,0.00,,,0.04,,2013-09-17 08:12:00,
2013-09-17 04:01:00,63.0,63.0,30.16,East,91,1.0,3.0,99,0.01,,,0.05,,2013-09-17 09:01:00,
2013-09-17 04:22:00,63.0,63.0,30.16,East,91,1.0,3.0,99,0.01,,,0.05,,2013-09-17 09:22:00,
2013-09-17 04:33:00,63.0,63.0,30.16,East,91,1.0,3.0,99,0.01,,,0.05,,2013-09-17 09:33:00,
2013-09-17 04:53:00,63.0,63.0,30.16,East,91,1.0,3.0,99,0.01,,,0.05,,2013-09-17 09:53:00,
2013-09-17 05:53:00,65.0,64.0,30.14,ESE,103,0.0,1.0,98,0.07,,,0.17,,2013-09-17 10:53:00,
2013-09-17 06:11:00,65.0,64.0,30.13,ESE,103,0.0,0.0,98,0.02,,,0.17,,2013-09-17 11:11:00,
2013-09-17 06:22:00,65.0,64.0,30.13,ESE,103,0.0,0.0,98,0.02,,,0.17,,2013-09-17 11:22:00,
2013-09-17 06:33:00,65.0,64.0,30.13,ESE,103,0.0,0.0,98,0.02,,,0.17,,2013-09-17 11:33:00,
2013-09-17 06:52:00,65.0,64.0,30.14,ESE,103,0.0,0.0,98,0.00,,,0.17,,2013-09-17 11:52:00,
2013-09-17 07:02:00,65.0,64.0,30.14,ESE,103,0.0,0.0,98,0.00,,,0.17,,2013-09-17 12:02:00,
2013-09-17 07:12:00,65.0,64.0,30.14,ESE,103,0.0,0.0,98,0.00,,,0.17,,2013-09-17 12:12:00,
2013-09-17 07:22:00,65.0,64.0,30.14,ESE,103,0.0,0.0,98,0.00,,,0.17,,2013-09-17 12:22:00,
2013-09-17 07:52:00,65.0,64.0,30.14,ESE,103,0.0,0.0,98,0.00,,,0.17,,2013-09-17 12:52:00,
2013-09-17 08:22:00,65.0,64.0,30.14,ESE,103,0.0,0.0,98,0.00,,,0.17,,2013-09-17 13:22:00,
2013-09-17 08:52:00,65.0,65.0,30.14,East,82,3.0,6.0,99,0.00,,,0.17,,2013-09-17 13:52:00,
2013-09-17 09:22:00,65.0,65.0,30.14,SE,145,4.0,8.0,99,0.00,,,0.17,,2013-09-17 14:22:00,
2013-09-17 09:52:00,66.0,66.0,30.14,SSE,149,1.0,7.0,99,0.00,,,0.17,,2013-09-17 14:52:00,
2013-09-17 10:22:00,66.0,66.0,30.14,SE,142,4.0,9.0,99,0.00,,,0.17,,2013-09-17 15:22:00,
2013-09-17 10:53:00,67.0,67.0,30.13,SSE,162,6.0,7.0,99,0.00,,,0.17,,2013-09-17 15:53:00,
2013-09-17 11:23:00,69.0,68.0,30.13,SSW,201,1.0,9.0,96,0.00,,,0.17,,2013-09-17 16:23:00,
2013-09-17 11:54:00,70.0,68.0,30.12,SE,142,6.0,12.0,94,0.00,,,0.17,,2013-09-17 16:54:00,
2013-09-17 12:03:00,70.0,68.0,30.12,SE,142,6.0,12.0,94,0.00,,,0.17,,2013-09-17 17:03:00,
2013-09-17 12:12:00,70.0,68.0,30.12,SE,142,6.0,12.0,94,0.00,,,0.17,,2013-09-17 17:12:00,
2013-09-17 12:23:00,70.0,68.0,30.12,SE,142,6.0,12.0,94,0.00,,,0.17,,2013-09-17 17:23:00,
2013-09-17 12:53:00,72.0,69.0,30.10,SE,131,6.0,10.0,90,0.00,,,0.16,,2013-09-17 17:53:00,
2013-09-17 13:22:00,73.0,69.0,30.09,South,174,1.0,12.0,87,0.00,,,0.16,,2013-09-17 18:22:00,
2013-09-17 13:52:00,75.0,70.0,30.08,SSE,165,0.0,10.0,84,0.00,,,0.16,,2013-09-17 18:52:00,
2013-09-17 14:22:00,76.0,69.0,30.06,South,183,9.0,11.0,80,0.00,,,0.16,,2013-09-17 19:22:00,
2013-09-17 14:31:00,78.0,70.0,30.04,SE,139,5.0,13.0,77,0.00,,,0.15,,2013-09-17 19:31:00,
2013-09-17 14:52:00,78.0,70.0,30.04,SE,139,5.0,13.0,77,0.00,,,0.15,,2013-09-17 19:52:00,
2013-09-17 15:11:00,78.0,70.0,30.04,SE,139,5.0,13.0,77,0.00,,,0.15,,2013-09-17 20:11:00,
2013-09-17 15:22:00,78.0,70.0,30.04,SE,139,5.0,13.0,77,0.00,,,0.15,,2013-09-17 20:22:00,
2013-09-17 15:52:00,82.0,71.0,30.00,South,176,6.0,13.0,69,0.00,,,0.15,,2013-09-17 20:52:00,
2013-09-17 16:22:00,84.0,71.0,29.99,SSW,211,2.0,12.0,65,0.00,,,0.15,,2013-09-17 21:22:00,
2013-09-17 16:30:00,84.0,70.0,29.98,South,181,5.0,13.0,64,0.00,,,0.15,,2013-09-17 21:30:00,
2013-09-17 16:54:00,84.0,70.0,29.98,South,181,5.0,13.0,64,0.00,,,0.15,,2013-09-17 21:54:00,
2013-09-17 17:04:00,84.0,70.0,29.98,South,181,5.0,13.0,64,0.00,,,0.15,,2013-09-17 22:04:00,
2013-09-17 17:13:00,84.0,70.0,29.98,South,181,5.0,13.0,64,0.00,,,0.15,,2013-09-17 22:13:00,
2013-09-17 17:24:00,84.0,70.0,29.98,South,181,5.0,13.0,64,0.00,,,0.15,,2013-09-17 22:24:00,
2013-09-17 18:22:00,84.0,70.0,29.95,SSW,208,4.0,14.0,62,0.00,,,0.15,,2013-09-17 23:22:00,
2013-09-17 18:42:00,84.0,70.0,29.94,SSE,168,7.0,14.0,64,0.00,,,0.15,,2013-09-17 23:42:00,
2013-09-17 18:52:00,84.0,70.0,29.94,SSE,168,7.0,14.0,64,0.00,,,0.15,,2013-09-17 23:52:00,
2013-09-17 19:02:00,84.0,70.0,29.94,SSE,168,7.0,14.0,64,0.00,,,0.15,,2013-09-18 00:02:00,
2013-09-17 19:22:00,83.0,70.0,29.93,SSE,161,5.0,12.0,65,0.00,,,0.15,,2013-09-18 00:22:00,
2013-09-17 19:32:00,83.0,70.0,29.93,SSE,161,5.0,12.0,65,0.00,,,0.15,,2013-09-18 00:32:00,
2013-09-17 19:52:00,83.0,70.0,29.93,SSE,161,5.0,12.0,65,0.00,,,0.15,,2013-09-18 00:52:00,
2013-09-17 20:11:00,80.0,69.0,29.92,SSW,195,6.0,10.0,70,0.00,,,0.15,,2013-09-18 01:11:00,
2013-09-17 20:22:00,80.0,69.0,29.92,SSW,195,6.0,10.0,70,0.00,,,0.15,,2013-09-18 01:22:00,
2013-09-17 20:53:00,79.0,69.0,29.93,SW,219,3.0,11.0,71,0.00,,,0.15,,2013-09-18 01:53:00,
2013-09-17 21:22:00,78.0,69.0,29.95,South,180,7.0,9.0,74,0.00,,,0.14,,2013-09-18 02:22:00,
2013-09-17 21:43:00,77.0,68.0,29.95,SE,135,6.0,9.0,75,0.00,,,0.14,,2013-09-18 02:43:00,
2013-09-17 21:52:00,77.0,68.0,29.95,South,186,2.0,12.0,75,0.00,,,0.14,,2013-09-18 02:52:00,
2013-09-17 22:23:00,76.0,68.0,29.95,SE,131,7.0,10.0,77,0.00,,,0.14,,2013-09-18 03:23:00,
2013-09-17 22:55:00,76.0,69.0,29.95,SSE,149,3.0,11.0,78,0.00,,,0.14,,2013-09-18 03:55:00,
2013-09-17 23:14:00,75.0,68.0,29.95,SSE,155,7.0,12.0,80,0.00,,,0.14,,2013-09-18 04:14:00,
2013-09-17 23:24:00,75.0,68.0,29.95,SSE,155,7.0,12.0,80,0.00,,,0.14,,2013-09-18 04:24:00,
2013-09-17 23:54:00,75.0,69.0,29.96,SE,146,6.0,11.0,83,0.00,,,0.14,,2013-09-18 04:54:00,